Location: Bambrugge
(50.9212°N, 3.9299°E)
Time: 05:44:19
(UTC+00:00)

Okean 2 Rocket - Pass Details

Date: 23 May 2024
Orbit: 614 x 637 km, 82.5° (Epoch: 19 June)

Event Time Altitude Azimuth Distance (km) Brightness Sun altitude
Rises 02:46:34 0° 348° (NNW) 2,898 7.0 -7.7°
Reaches altitude 10° 02:48:48 10° 347° (NNW) 1,989 6.1 -7.4°
Maximum altitude 02:53:11 74° 263° (W) 646 3.0 -6.9°
Drops below altitude 10° 02:57:33 10° 178° (S) 1,981 5.3 -6.4°
Sets 02:59:47 0° 177° (S) 2,885 6.1 -6.2°
